East Wenatchee, WA

1:56 PM PST on February 23, 2017 (GMT -0800)
Pangborn Memorial

Weather History for KEAT - September, 2013

Change the Weather History Date:

Monday, September 16, 2013

  Actual Average Record
Temperature  
Mean Temperature 62 °F 57 °F  
Max Temperature 72 °F 73 °F 92 °F (1981)
Min Temperature 51 °F 42 °F 39 °F (1992)
Degree Days  
Heating Degree Days 3 8  
Month to date heating degree days 14 96  
Since 1 July heating degree days 38 207  
Cooling Degree Days 0 0  
Month to date cooling degree days 69 14  
Year to date cooling degree days 383 247  
Growing Degree Days 18 (Base 50)    
Moisture  
Dew Point 51 °F    
Average Humidity 57    
Maximum Humidity 84    
Minimum Humidity 35    
Precipitation  
Precipitation T in 0.02 in 0.81 in (1986)
Month to date precipitation 0.49 0.31  
Year to date precipitation 9.15 10.73  
Snow  
Snow 0.00 in 0.00 in - ()
Month to date snowfall 0.0 0.0  
Since 1 July snowfall 0.0 0.0  
Since 1 September snowfall 0.0 0.0  
Snow Depth 0.00 in    
Sea Level Pressure  
Sea Level Pressure 29.79 in    
Wind  
Wind Speed 6 mph (WNW)    
Max Wind Speed 17 mph    
Max Gust Speed -    
Visibility 10 miles    
Events      
T = Trace of Precipitation, MM = Missing Value Source: NWS Daily Summary

Daily Weather History Graph

Daily Weather History Graph

Search for Another Location

Airport or City:

Trip Planner

Search our weather history database for the weather conditions in past years. The results will help you decide how hot, cold, wet, or windy it might be!

Date:

Astronomy

Sep. 16, 2013 Rise Set
Actual Time 6:40 AM PDT 7:10 PM PDT
Civil Twilight 6:09 AM PDT 7:40 PM PDT
Nautical Twilight 5:32 AM PDT 8:17 PM PDT
Astronomical Twilight 4:54 AM PDT 8:55 PM PDT
Moon 5:29 PM PDT (9/16) 3:22 AM PDT (9/16)
Length of Visible Light 13h 31m
Length of Day
12h 30m
Waxing Gibbous, 91% of the Moon is Illuminated
Sep 16
Waxing Gibbous
Sep 19
Full
Sep 26
Last Quarter
Oct 4
New
Oct 11
First Quarter

Hourly Weather History & Observations

Time (PDT) Temp. Dew Point Humidity Pressure Visibility Wind Dir Wind Speed Gust Speed Precip Events Conditions
12:55 AM 63.0 °F 57.0 °F 81% 29.72 in 10.0 mi Calm Calm - N/A   Clear
1:55 AM 63.0 °F 57.9 °F 84% 29.73 in 10.0 mi WNW 3.5 mph - N/A   Clear
2:55 AM 63.0 °F 57.0 °F 81% 29.75 in 10.0 mi SSE 3.5 mph - N/A   Clear
3:55 AM 62.1 °F 57.0 °F 84% 29.76 in 10.0 mi Calm Calm - N/A   Clear
4:55 AM 63.0 °F 55.9 °F 78% 29.76 in 10.0 mi WNW 8.1 mph - N/A   Clear
5:55 AM 62.1 °F 55.9 °F 80% 29.76 in 10.0 mi WNW 5.8 mph - N/A   Partly Cloudy
6:55 AM 62.1 °F 55.9 °F 80% 29.78 in 10.0 mi WNW 4.6 mph - N/A   Mostly Cloudy
7:55 AM 63.0 °F 55.0 °F 75% 29.79 in 10.0 mi WNW 5.8 mph - N/A   Clear
8:55 AM 66.9 °F 52.0 °F 59% 29.80 in 10.0 mi WNW 12.7 mph - N/A   Clear
9:55 AM 70.0 °F 50.0 °F 49% 29.81 in 10.0 mi NW 15.0 mph - N/A   Clear
10:55 AM 71.1 °F 50.0 °F 47% 29.81 in 10.0 mi NNW 5.8 mph - N/A   Clear
11:55 AM 72.0 °F 48.9 °F 44% 29.82 in 10.0 mi NNW 3.5 mph - N/A   Clear
12:55 PM 73.9 °F 46.9 °F 38% 29.81 in 10.0 mi SW 3.5 mph - N/A   Clear
1:55 PM 75.9 °F 46.9 °F 36% 29.80 in 10.0 mi West 9.2 mph - N/A   Clear
2:55 PM 75.9 °F 46.0 °F 35% 29.79 in 10.0 mi NW 12.7 mph - N/A   Clear
3:55 PM 75.9 °F 46.0 °F 35% 29.78 in 10.0 mi NW 15.0 mph - N/A   Partly Cloudy
4:55 PM 75.0 °F 46.0 °F 36% 29.78 in 10.0 mi NW 12.7 mph - N/A   Clear
5:55 PM 73.0 °F 46.9 °F 39% 29.78 in 10.0 mi WNW 16.1 mph - N/A   Partly Cloudy
6:55 PM 70.0 °F 48.0 °F 46% 29.79 in 10.0 mi NW 9.2 mph - N/A   Clear
7:55 PM 66.9 °F 48.0 °F 51% 29.80 in 10.0 mi WNW 12.7 mph - N/A   Clear
8:55 PM 66.0 °F 46.9 °F 50% 29.80 in 10.0 mi NW 16.1 mph - N/A   Clear
9:55 PM 64.0 °F 46.0 °F 52% 29.81 in 10.0 mi WNW 17.3 mph - N/A   Clear
10:55 PM 64.0 °F 46.9 °F 54% 29.81 in 10.0 mi WNW 15.0 mph - N/A   Clear
11:55 PM 62.1 °F 48.0 °F 60% 29.81 in 10.0 mi NW 6.9 mph - N/A   Clear